[[{"header":{"parameterUnit":"m.s-1","parameterCategory":1,"la1":30.2991,"la2":30.254,"lo1":-89.0895,"lo2":-89.0444,"dy":0.0017,"dx":0.0017,"nx":28,"ny":28,"refTime":"2024-03-27T09:00:00:Z","depth":0,"parameterNumber":2,"parameterNumberName":"U-component_of_WINDS"},"data":[0,0,0,0,0,0,0,0,0,0,0,0,0,0,0,0,0,0,0,0,0,0,0,0,0,0,0,0,0,0,0,0,0,0,0,0,0,0,0,0,0,0,0,0,0,0,0,0,0,0,0,0,0,0,0,0,0,0,-1.1225,-1.1225,0,-1.1256,-1.1256,-1.1257,-1.119,-1.1188,-1.1186,-1.1184,-1.1216,-1.1219,-1.1222,0,0,0,0,0,0,0,0,0,0,0,0,0,-1.1108,-1.1111,-1.1225,-1.1225,-1.1226,-1.1256,-1.1256,-1.1257,-1.119,-1.1188,-1.1185,-1.1183,-1.1215,-1.1219,-1.1222,0,0,0,0,0,0,0,0,0,0,0,0,0,-1.1151,-1.1112,-1.1225,-1.1196,-1.1194,-1.1256,-1.1256,-1.1257,-1.1191,-1.1188,-1.1184,-1.1181,-1.1214,-1.1218,-1.1222,-1.1314,0,0,-1.1236,-1.1238,0,0,0,0,0,0,0,0,-1.1149,-1.1155,-1.12,-1.1198,-1.1196,-1.1216,-1.1227,-1.1276,-1.1192,-1.1192,-1.1184,-1.118,-1.1219,-1.1222,-1.1235,-1.1315,-1.1317,-1.1236,-1.1239,-1.1241,-1.1242,0,0,0,0,0,0,0,-1.1146,-1.1154,-1.1237,-1.1201,-1.1198,-1.1182,-1.1184,-1.1236,-1.1223,-1.1192,-1.1187,-1.1192,-1.1217,-1.1231,-1.1236,-1.1317,-1.1236,-1.124,-1.1242,-1.1244,-1.1475,-1.1478,0,0,0,0,0,0,-1.1146,-1.1152,-1.1236,-1.1238,-1.1164,-1.1187,-1.1189,-1.1213,-1.1222,-1.1221,-1.1194,-1.1188,-1.1226,-1.1231,-1.1237,-1.1346,-1.124,-1.1245,-1.1247,-1.1471,-1.1476,-1.148,0,0,0,0,0,0,-1.1144,-1.1155,-1.1235,-1.1194,-1.1203,-1.1192,-1.1219,-1.1215,-1.1229,-1.1224,-1.1222,-1.1212,-1.1223,-1.123,-1.1295,-1.1346,-1.1246,-1.125,-1.1467,-1.1473,-1.1478,-1.1564,0,0,0,0,0,0,-1.1141,-1.1154,-1.1189,-1.1195,-1.1205,-1.1293,-1.1222,-1.1218,-1.1237,-1.1229,-1.124,-1.1238,-1.1221,-1.1289,-1.13,-1.135,-1.1254,-1.1463,-1.147,-1.1476,-1.1556,-1.1571,-1.1584,0,0,0,0,0,-1.1137,-1.1212,-1.1191,-1.1201,-1.1248,-1.1296,-1.1302,-1.1281,-1.1241,-1.1276,-1.1273,-1.1238,-1.1338,-1.1297,-1.1308,-1.136,-1.1459,-1.1468,-1.1475,-1.155,-1.1568,-1.1584,0,0,0,0,0,0,-1.1212,-1.1212,-1.1189,-1.1267,-1.1283,-1.1285,-1.1329,-1.1301,-1.1327,-1.1319,-1.1292,-1.1295,-1.1365,-1.1368,-1.1322,-1.1449,-1.1392,-1.1403,-1.1445,-1.1462,-1.1476,-1.1475,-1.1257,0,0,0,0,0,-1.1237,-1.1277,-1.1274,-1.1344,-1.1352,-1.1339,-1.136,-1.1342,-1.1356,-1.1362,-1.1364,-1.1379,-1.1414,-1.1438,-1.147,-1.1555,-1.1558,-1.1597,-1.1611,-1.1622,-1.1632,-1.1679,-1.1697,-1.1506,-1.1506,-1.1505,0,0,-1.1291,-1.1296,-1.1322,-1.1359,-1.1369,-1.141,-1.1345,-1.1392,-1.1423,-1.1369,-1.1432,-1.1433,-1.1448,-1.1525,-1.1558,-1.153,-1.1685,-1.1632,-1.1641,-1.1645,-1.1689,-1.1708,-1.1724,-1.1511,-1.151,-1.1509,0,0,-1.141,-1.1417,-1.1476,-1.1487,-1.1502,-1.1493,-1.1507,-1.1514,-1.1513,-1.1575,-1.1536,-1.1572,-1.1632,-1.1646,-1.166,-1.1784,-1.1754,-1.1795,-1.1868,-1.1914,-1.1929,-1.1943,-1.1989,-1.2005,-1.1804,-1.1805,-1.1805,0,-1.1475,-1.1536,-1.151,-1.156,-1.1578,-1.1531,-1.1592,-1.1603,-1.1628,-1.1642,-1.1609,-1.1684,-1.1691,-1.1771,-1.1801,-1.1814,-1.183,-1.1795,-1.1929,-1.1942,-1.1954,-1.1998,-1.2015,-1.181,-1.1809,-1.1809,-1.1808,0,-1.1615,-1.1658,-1.1704,-1.173,-1.1753,-1.1808,-1.1791,-1.1817,-1.1797,-1.1791,-1.1855,-1.1861,-1.1894,-1.1911,-1.1892,-1.1988,-1.197,-1.1934,-1.1876,-1.1978,-1.2019,-1.2035,-1.1817,-1.1815,-1.1814,-1.1813,0,0,-1.1784,-1.1795,-1.1812,-1.1824,-1.1837,-1.187,-1.1922,-1.1955,-1.1978,-1.1996,-1.2041,-1.2093,-1.206,-1.2076,-1.2058,-1.2098,-1.2198,-1.2056,-1.2056,-1.2084,-1.2306,-1.2335,-1.2355,-1.2176,-1.2179,-1.2182,-1.2305,0,-1.1904,-1.1995,-1.1973,-1.2064,-1.2104,-1.2059,-1.2105,-1.2119,-1.2115,-1.2148,-1.2143,-1.2181,-1.2133,-1.2143,-1.2181,-1.2178,-1.2242,-1.2168,-1.2219,-1.2221,-1.2219,-1.2376,-1.2406,-1.2523,-1.2321,-1.2323,-1.2325,0,-1.2056,-1.2081,-1.2175,-1.2183,-1.2198,-1.224,-1.2269,-1.2301,-1.2315,-1.2309,-1.2328,-1.2301,-1.2354,-1.2294,-1.2366,-1.2317,-1.2336,-1.2337,-1.2341,-1.2347,-1.2281,-1.2388,-1.2559,-1.2578,-1.235,-1.2348,-1.2346,0,-1.2172,-1.2229,-1.2293,-1.2304,-1.2313,-1.2344,-1.235,-1.236,-1.2381,-1.2405,-1.2419,-1.2449,-1.2466,-1.249,-1.2472,-1.243,-1.2548,-1.2487,-1.2546,-1.2547,-1.2575,-1.2574,-1.2754,-1.2584,-1.2583,-1.2583,-1.2583,0,-1.2309,-1.2369,-1.2345,-1.2385,-1.2451,-1.2426,-1.2492,-1.2492,-1.2502,-1.2541,-1.2504,-1.2542,-1.2515,-1.2551,-1.2537,-1.26,-1.2608,-1.2605,-1.2601,-1.261,-1.2611,-1.2624,-1.2616,-1.2588,-1.2587,-1.2586,-1.2585,0,-1.2451,-1.2437,-1.2505,-1.2508,-1.2511,-1.256,-1.2563,-1.26,-1.2592,-1.2643,-1.2653,-1.2642,-1.2681,-1.2666,-1.2708,-1.2699,-1.278,-1.2764,-1.2776,-1.2773,-1.2834,-1.2829,-1.3031,-1.3057,-1.2868,-1.2869,-1.2871,0,-1.2541,-1.2586,-1.2595,-1.2619,-1.2627,-1.2665,-1.2686,-1.2662,-1.2686,-1.2706,-1.2741,-1.2777,-1.2806,-1.2871,-1.2867,-1.2899,-1.2885,-1.2954,-1.289,-1.2898,-1.2889,-1.2888,-1.2893,-1.2967,-1.297,-1.2971,-1.2973,0,-1.2702,-1.2693,-1.2725,-1.2756,-1.2782,-1.2804,-1.2823,-1.2845,-1.2822,-1.285,-1.2891,-1.2913,-1.2956,-1.2993,-1.3022,-1.3027,-1.2997,-1.2992,-1.3008,-1.3019,-1.3025,-1.3024,-1.2813,-1.2989,-1.2987,-1.2986,-1.2985,-1.2984,-1.2822,-1.2861,-1.2874,-1.2911,-1.2922,-1.2941,-1.2977,-1.2974,-1.3007,-1.3041,-1.3024,-1.3072,-1.3084,-1.312,-1.3129,-1.3166,-1.314,-1.3162,-1.3168,-1.3175,-1.3184,-1.3017,-1.3171,-1.3171,-1.317,-1.317,-1.3169,0,-1.2984,-1.2989,-1.3024,-1.3052,-1.3082,-1.3049,-1.3069,-1.3096,-1.3138,-1.3152,-1.3181,-1.3228,-1.3264,-1.3262,-1.3295,-1.3325,-1.3312,-1.3335,-1.3334,-1.3336,-1.3205,-1.3189,-1.3345,-1.3345,-1.3345,-1.3345,-1.3345,-1.3345,-1.3071,-1.3136,-1.3128,-1.3198,-1.3203,-1.325,-1.3264,-1.3281,-1.3293,-1.3347,-1.3377,-1.3375,-1.3383,-1.3417,-1.3448,-1.3447,-1.3462,-1.349,-1.3484,-1.3362,-1.3345,-1.3328,-1.3313,-1.3493,-1.3493,-1.3612,-1.3613,-1.3614]},{"header":{"parameterUnit":"m.s-1","parameterCategory":1,"la1":30.2991,"la2":30.254,"lo1":-89.0895,"lo2":-89.0444,"dy":0.0017,"dx":0.0017,"nx":28,"ny":28,"refTime":"2024-03-27T09:00:00:Z","depth":0,"parameterNumber":3,"parameterNumberName":"V-component_of_WINDS"},"data":[0,0,0,0,0,0,0,0,0,0,0,0,0,0,0,0,0,0,0,0,0,0,0,0,0,0,0,0,0,0,0,0,0,0,0,0,0,0,0,0,0,0,0,0,0,0,0,0,0,0,0,0,0,0,0,0,0,0,-2.3916,-2.3917,0,-2.4029,-2.403,-2.4031,-2.4034,-2.4033,-2.4032,-2.403,-2.4142,-2.4146,-2.415,0,0,0,0,0,0,0,0,0,0,0,0,0,-2.37,-2.3704,-2.3916,-2.3917,-2.3919,-2.4028,-2.403,-2.4031,-2.4034,-2.4033,-2.4031,-2.403,-2.414,-2.4145,-2.4151,0,0,0,0,0,0,0,0,0,0,0,0,0,-2.3801,-2.3706,-2.3916,-2.3934,-2.3936,-2.4028,-2.403,-2.4032,-2.4035,-2.4033,-2.4031,-2.4029,-2.4139,-2.4145,-2.4151,-2.4232,0,0,-2.4171,-2.4173,0,0,0,0,0,0,0,0,-2.3796,-2.3809,-2.3929,-2.3932,-2.3936,-2.4015,-2.3995,-2.4099,-2.4035,-2.3997,-2.403,-2.4028,-2.4101,-2.411,-2.4136,-2.4237,-2.4242,-2.4171,-2.4175,-2.4178,-2.418,0,0,0,0,0,0,0,-2.3789,-2.3804,-2.396,-2.3931,-2.3935,-2.3935,-2.3947,-2.4015,-2.4059,-2.4,-2.4001,-2.4014,-2.4102,-2.413,-2.4139,-2.4243,-2.4171,-2.4177,-2.4181,-2.4183,-2.4416,-2.4418,0,0,0,0,0,0,-2.3779,-2.3799,-2.3957,-2.3964,-2.3859,-2.394,-2.3954,-2.3992,-2.4059,-2.4067,-2.4016,-2.4014,-2.412,-2.4131,-2.4143,-2.4241,-2.4178,-2.4184,-2.4187,-2.4413,-2.4416,-2.4419,0,0,0,0,0,0,-2.3774,-2.3793,-2.3952,-2.3881,-2.3902,-2.3946,-2.3989,-2.3995,-2.4023,-2.407,-2.4078,-2.4036,-2.4119,-2.4134,-2.421,-2.4245,-2.4187,-2.4192,-2.4411,-2.4414,-2.4417,-2.4439,0,0,0,0,0,0,-2.3768,-2.3791,-2.3823,-2.3882,-2.3906,-2.4019,-2.3991,-2.3999,-2.4034,-2.4033,-2.4091,-2.4099,-2.4118,-2.42,-2.4216,-2.4253,-2.4197,-2.4408,-2.4412,-2.4416,-2.4436,-2.4443,-2.445,0,0,0,0,0,-2.376,-2.3824,-2.3824,-2.3843,-2.3946,-2.4021,-2.4034,-2.4056,-2.4037,-2.4069,-2.4099,-2.4097,-2.4239,-2.4208,-2.4226,-2.4265,-2.4405,-2.4411,-2.4416,-2.4433,-2.4442,-2.4449,0,0,0,0,0,0,-2.3766,-2.3832,-2.3833,-2.3918,-2.3964,-2.4021,-2.4062,-2.4065,-2.4116,-2.4113,-2.4137,-2.415,-2.4226,-2.4253,-2.4217,-2.4346,-2.432,-2.4329,-2.4326,-2.4335,-2.4342,-2.4334,-2.4203,0,0,0,0,0,-2.3777,-2.3833,-2.3887,-2.3957,-2.398,-2.4017,-2.405,-2.4063,-2.4111,-2.413,-2.4167,-2.4212,-2.4267,-2.4302,-2.4356,-2.4439,-2.4452,-2.4475,-2.4482,-2.4488,-2.4495,-2.4542,-2.4553,-2.4436,-2.4436,-2.4436,0,0,-2.3801,-2.3844,-2.3877,-2.3959,-2.3996,-2.4053,-2.4033,-2.4094,-2.4136,-2.4139,-2.4214,-2.4242,-2.4294,-2.4375,-2.4412,-2.44,-2.453,-2.4495,-2.4499,-2.4503,-2.4548,-2.4559,-2.4569,-2.444,-2.4439,-2.4439,0,0,-2.3873,-2.3911,-2.3974,-2.4011,-2.4068,-2.4093,-2.4108,-2.4165,-2.4184,-2.426,-2.4263,-2.4313,-2.4407,-2.4444,-2.4475,-2.4562,-2.4562,-2.4578,-2.4615,-2.466,-2.4669,-2.4677,-2.4708,-2.4719,-2.4586,-2.4586,-2.4586,0,-2.3895,-2.3981,-2.4005,-2.4066,-2.4102,-2.4109,-2.4172,-2.4207,-2.4277,-2.4301,-2.4287,-2.4406,-2.4441,-2.4531,-2.4552,-2.4577,-2.4594,-2.4572,-2.4666,-2.4675,-2.4683,-2.4713,-2.4724,-2.4588,-2.4587,-2.4587,-2.4587,0,-2.4005,-2.4065,-2.4109,-2.4179,-2.4219,-2.4281,-2.4313,-2.435,-2.436,-2.4386,-2.4462,-2.4505,-2.4568,-2.459,-2.4599,-2.4681,-2.4671,-2.4661,-2.4635,-2.4695,-2.4724,-2.4735,-2.459,-2.4589,-2.4589,-2.4588,0,0,-2.4084,-2.4167,-2.4182,-2.4214,-2.4278,-2.4324,-2.4385,-2.4448,-2.448,-2.4528,-2.458,-2.466,-2.4651,-2.4686,-2.47,-2.474,-2.4806,-2.4725,-2.4726,-2.4738,-2.4898,-2.4905,-2.4918,-2.4806,-2.4808,-2.481,-2.4894,0,-2.4164,-2.4275,-2.4298,-2.4394,-2.4449,-2.4457,-2.451,-2.4554,-2.458,-2.463,-2.4657,-2.4714,-2.4698,-2.4719,-2.4759,-2.4789,-2.4838,-2.4783,-2.4854,-2.4856,-2.4841,-2.4933,-2.4941,-2.5018,-2.4905,-2.4907,-2.4908,0,-2.4271,-2.4324,-2.4425,-2.4482,-2.4506,-2.4554,-2.4613,-2.4661,-2.4711,-2.4726,-2.4766,-2.4776,-2.4839,-2.481,-2.4897,-2.4859,-2.4889,-2.4908,-2.4912,-2.4919,-2.4886,-2.4943,-2.5043,-2.5055,-2.4926,-2.4924,-2.4923,0,-2.4319,-2.4415,-2.4488,-2.4515,-2.4583,-2.4616,-2.4646,-2.4694,-2.473,-2.4781,-2.4804,-2.4861,-2.4892,-2.4936,-2.496,-2.4936,-2.5046,-2.5018,-2.506,-2.5059,-2.5083,-2.5081,-2.5189,-2.5102,-2.5101,-2.5101,-2.5101,0,-2.4405,-2.4467,-2.4511,-2.4556,-2.4625,-2.4651,-2.4718,-2.4747,-2.479,-2.484,-2.485,-2.4896,-2.4925,-2.4976,-2.4995,-2.5064,-2.5078,-2.5092,-2.5096,-2.5092,-2.509,-2.5112,-2.5107,-2.5104,-2.5104,-2.5103,-2.5102,0,-2.447,-2.4502,-2.4583,-2.464,-2.4656,-2.4705,-2.4754,-2.4798,-2.4823,-2.4887,-2.4903,-2.4943,-2.5003,-2.5031,-2.5105,-2.5118,-2.5197,-2.5197,-2.5181,-2.5182,-2.5223,-2.5218,-2.5349,-2.5367,-2.5267,-2.5268,-2.5269,0,-2.4523,-2.4571,-2.4635,-2.467,-2.47,-2.4756,-2.4794,-2.482,-2.4858,-2.4919,-2.4955,-2.5016,-2.5066,-2.5161,-2.5196,-2.5252,-2.5254,-2.5296,-2.5263,-2.5257,-2.5255,-2.5252,-2.5257,-2.5302,-2.5303,-2.5304,-2.5305,0,-2.4614,-2.4628,-2.4682,-2.4741,-2.4786,-2.4833,-2.488,-2.4908,-2.4942,-2.4984,-2.5046,-2.5085,-2.5161,-2.5221,-2.528,-2.5309,-2.5313,-2.5315,-2.5328,-2.5323,-2.5312,-2.5319,-2.5197,-2.5312,-2.5311,-2.5311,-2.531,-2.531,-2.4675,-2.4719,-2.477,-2.483,-2.4868,-2.4912,-2.4956,-2.4988,-2.5041,-2.5106,-2.5118,-2.5184,-2.5232,-2.5312,-2.5343,-2.5394,-2.5385,-2.5403,-2.5408,-2.5412,-2.5414,-2.5303,-2.5405,-2.5405,-2.5405,-2.5404,-2.5404,0,-2.4767,-2.4801,-2.4855,-2.4922,-2.4968,-2.4969,-2.502,-2.5059,-2.5118,-2.5163,-2.5213,-2.5284,-2.5342,-2.5382,-2.5441,-2.5474,-2.5477,-2.5489,-2.5487,-2.5493,-2.5419,-2.5403,-2.5486,-2.5486,-2.5486,-2.5485,-2.5485,-2.5485,-2.482,-2.4894,-2.4913,-2.5006,-2.5039,-2.5105,-2.5134,-2.5174,-2.5211,-2.5291,-2.534,-2.5366,-2.5409,-2.5471,-2.5524,-2.5534,-2.5555,-2.5567,-2.5577,-2.5507,-2.5499,-2.549,-2.5475,-2.5572,-2.5572,-2.5647,-2.5647,-2.5648]}]]